Weather in Debdirge

Russia / Sakha (Yakutia) Republic     62°24′48″N   132°52′46″E
temp.,
°C
wind,
m/s
gust,
m/s
humid.,
%
clouds,
%
prec.,
mm/h
press.,
hPa
HPBL,
m
10 may, mon
mon1000:00+5sse118569 0.0 101210
03:00+4w2291100 0.0 101215
06:00+6nw238258 0.0 1012155
09:00+11wnw235567 0.0 1011878
12:00+14wnw344158 0.0 10102003
15:00+14wsw3439100 0.0 10101963
18:00+13wsw3444100 0.0 1010953
21:00+8nw385691 0.0 1011210
11 may, tue
tue1100:00+5n248163 0.0 101284
03:00+4nnw248268 0.0 101381
06:00+6n237420 0.0 1013198
09:00+11n225247 0.0 1013834
12:00+14nnw114196 0.1 10121696
15:00+14n2140100 0.1 10111757
18:00+13ese3348100 0.0 10101395
21:00+9ese2574100 0.1 1011193
12 may, wed
wed1200:00+8se2583100 0.4 1010240
03:00+8s488659 0.8 1009622
06:00+4wsw4891100 0.0 1010585
09:00+3wsw4791100 0.1 1011545
12:00+5w4677100 0.1 1011829
15:00+6nw3474100 0.1 1011846
18:00+6nw2470100 0.0 1011880
21:00+5wnw1174100 0.0 101113
13 may, thu
thu1300:00+3wnw1183100 0.0 101016
03:00+2wnw2287100 0.0 101021
06:00+3nnw2379100 0.0 1010202
09:00+8nnw344551 0.0 10091133
12:00+11nnw34282 0.0 10081732
15:00+12n34305 0.0 10082136
18:00+11nne33315 0.0 10081998
21:00+5ne24525 0.0 101075
14 may, fri
fri1400:00+2ene22635 0.0 101114
03:000ene116725 0.0 101110
06:00+4ene11515 0.0 1012183
09:00+9n12365 0.0 1011973
12:00+12nne22275 0.0 10091690
15:00+14nne222423 0.0 10082036
18:00+13ne22255 0.0 10082065
21:00+7ene224113 0.0 100818